Wind_Speed
38 38 37 36 35 35 34 34 35 37 37 36 37 38 38 38 37 37 36 35 34 33 31 31 31 31 30 30 30 31 32 32 33 33 33 34 34 34 33 33 32 31 30
38 37 37 37 36 36 36 36 36 37 37 38 39 39 40 40 40 40 38 37 36 35 34 34 34 33 32 32 33 34 33 34 36 36 36 35 35 36 35 35 34 33 31
37 38 37 36 37 36 36 37 37 37 37 38 39 40 40 40 41 42 41 37 36 36 35 35 35 34 33 33 34 34 35 35 37 38 39 38 36 36 36 36 35 34 33
37 38 38 38 37 37 37 38 37 38 39 39 39 40 40 40 41 41 41 39 40 38 36 35 34 33 32 32 33 35 35 36 37 38 40 40 40 38 34 35 36 35 34
39 39 40 40 40 40 40 40 40 40 41 41 41 41 39 38 37 37 37 36 36 35 33 33 33 32 32 33 34 35 36 37 37 38 38 39 39 39 36 33 34 35 35
43 44 44 44 44 45 44 44 44 44 43 43 42 39 38 38 37 34 35 35 34 33 32 31 31 32 33 34 34 35 36 37 37 37 37 37 37 36 36 34 32 33 35
47 48 49 49 49 49 49 48 47 47 47 45 43 41 40 39 38 36 35 34 33 32 31 31 32 33 34 35 35 36 36 36 36 36 36 36 35 35 34 34 32 31 33
48 50 51 52 52 52 52 51 50 50 48 46 44 43 41 41 39 38 37 35 33 33 32 33 34 35 36 36 36 36 36 36 35 35 34 33 33 33 33 32 31 30 31
44 46 48 49 50 51 51 51 50 50 49 47 45 44 42 40 39 37 36 35 34 34 34 36 36 36 37 37 36 35 34 33 33 33 32 32 32 31 31 30 30 29 28
39 42 44 46 47 49 50 50 50 50 49 46 45 42 41 39 38 37 36 36 35 35 36 36 36 36 36 36 35 34 33 32 32 31 31 31 30 30 29 29 29 28 27
38 40 42 44 45 47 47 47 47 46 46 45 42 41 40 39 37 35 36 37 36 36 35 35 35 35 35 34 33 33 32 32 31 31 31 31 30 30 30 29 29 28 27
36 38 39 41 42 42 42 41 41 40 39 38 38 37 37 37 36 35 36 36 35 34 34 34 34 33 33 33 33 33 32 32 32 32 32 32 31 31 31 31 30 30 29
34 35 36 37 36 36 35 34 34 33 33 32 33 33 33 35 35 35 34 34 34 34 33 32 32 32 32 32 33 33 33 32 32 33 33 33 32 32 32 32 32 31 31
32 33 32 32 32 31 31 29 30 29 30 30 31 30 30 31 32 32 32 31 31 31 30 31 31 32 32 32 32 32 32 33 33 33 33 33 34 34 34 34 33 33 33
30 30 28 28 28 27 25 25 26 26 27 27 27 28 28 28 28 29 29 28 28 29 29 30 30 30 31 31 32 32 32 33 33 34 34 35 35 36 36 36 36 35 35
28 27 26 26 24 22 21 22 21 21 23 24 24 24 24 25 25 26 26 26 26 26 27 28 28 29 29 29 30 30 31 31 32 33 34 34 35 35 36 36 37 37 36
26 25 24 24 21 19 19 21 21 20 21 23 23 22 22 23 24 24 24 24 24 25 26 26 27 27 27 27 28 29 30 31 31 32 34 34 35 36 36 36 36 37 36
24 23 22 21 20 19 18 18 18 19 19 20 21 21 21 21 21 22 22 22 23 23 24 24 24 24 24 24 25 27 28 30 31 32 33 34 35 36 36 37 37 38 38
22 22 21 20 19 19 19 17 17 18 18 18 18 18 19 19 20 20 20 20 19 20 20 19 19 20 21 22 24 26 27 29 31 32 33 35 36 37 37 37 37 37 37
21 20 19 18 18 17 16 15 15 15 15 15 15 16 16 15 16 16 16 16 16 16 16 16 17 18 20 21 23 25 27 29 31 32 33 34 34 35 36 36 37 37 37
19 18 17 16 15 14 13 12 12 12 12 13 13 13 13 13 13 13 13 13 13 14 15 15 17 18 19 21 23 25 27 29 31 32 33 33 33 34 34 35 35 36 36
17 17 16 14 13 12 11 10 9 10 9 9 10 10 11 11 11 11 11 11 12 13 14 15 16 17 19 21 23 25 27 29 30 31 32 33 33 32 32 32 32 33 34
16 15 14 14 12 11 10 9 9 9 9 9 9 9 9 9 10 10 11 12 13 13 14 15 16 17 19 21 23 26 28 30 31 31 32 31 31 31 31 30 30 30 30
16 15 14 13 12 11 10 9 10 10 10 9 9 9 9 9 10 11 12 12 13 13 14 14 16 17 19 22 24 27 29 30 31 31 30 30 29 29 29 28 28 27 27
17 15 14 13 12 11 10 10 9 9 9 9 9 9 10 11 12 12 13 13 13 14 14 15 16 18 20 22 25 27 29 30 30 30 30 29 29 29 28 27 26 26 25
19 17 16 15 15 13 12 11 10 10 10 10 11 11 11 12 13 13 13 14 14 15 15 16 17 18 20 22 25 27 29 30 29 29 29 29 29 28 27 27 26 25 24
Wind_Direction
261 260 261 261 262 264 266 269 271 270 271 270 270 265 262 262 264 267 269 269 270 272 275 276 277 279 280 282 284 286 286 287 289 290 291 293 295 295 295 294 292 289 285
259 259 260 262 263 264 265 267 268 270 270 270 267 263 261 261 260 262 263 264 266 270 273 275 276 277 279 280 281 283 283 286 288 288 289 289 291 292 292 291 290 288 284
258 260 262 264 264 265 268 270 271 272 272 269 266 263 262 262 262 262 260 260 264 267 269 272 273 275 277 278 279 280 282 285 287 288 289 290 289 288 290 289 287 285 283
261 262 264 265 268 271 273 274 274 272 272 271 268 268 264 263 262 262 258 258 262 264 268 271 272 275 277 277 278 279 282 284 286 288 290 291 291 289 287 286 285 283 281
263 264 266 268 271 273 275 275 275 274 273 271 271 267 265 265 265 263 261 261 263 265 269 271 273 276 279 279 279 281 284 286 288 289 289 290 290 290 288 285 283 282 280
265 266 267 269 271 273 274 274 274 274 273 273 273 270 269 266 266 266 264 263 265 268 270 273 277 280 280 281 281 284 287 288 289 289 290 290 290 289 289 287 283 280 278
265 266 267 269 271 272 273 273 273 272 271 271 272 270 268 267 268 265 264 264 266 269 272 276 278 280 281 283 284 287 288 288 288 289 290 290 290 289 288 288 285 281 278
267 267 268 269 270 271 272 272 271 271 270 270 269 269 266 263 265 264 262 263 266 269 273 276 277 279 281 284 286 287 288 288 287 287 288 289 289 289 289 288 287 285 279
272 272 272 272 272 272 272 272 271 270 270 269 266 268 267 262 262 262 262 263 265 268 271 273 275 277 280 282 284 285 286 286 285 285 285 286 287 289 289 288 289 288 284
280 278 277 276 275 274 274 272 271 271 268 267 265 265 263 261 261 262 262 262 264 266 268 271 273 275 277 279 280 281 283 283 283 283 283 284 286 287 288 289 289 288 287
287 285 284 283 281 278 276 274 272 271 268 265 263 263 260 257 259 261 261 261 262 263 266 269 272 273 273 275 277 278 280 280 281 280 281 282 284 284 286 287 287 287 287
295 293 290 289 286 282 278 275 272 268 265 261 260 259 259 257 257 259 260 260 260 262 265 267 269 271 272 274 275 277 278 278 279 279 279 280 281 282 283 285 285 285 284
300 299 297 293 290 283 278 275 270 265 262 259 257 255 253 253 255 256 257 258 260 261 263 265 268 269 271 273 275 277 278 278 279 279 279 279 280 280 281 282 282 282 282
305 303 301 296 291 286 279 273 267 262 259 255 252 251 248 247 249 251 253 255 256 259 262 264 267 270 272 274 276 277 278 279 280 280 280 280 281 281 281 281 280 279 279
308 306 303 298 294 289 279 272 263 255 252 248 247 245 245 244 245 247 251 253 256 259 263 266 268 271 274 276 278 279 280 280 281 282 282 282 282 281 280 279 278 277 276
310 308 305 299 292 287 279 272 264 255 252 249 249 246 244 247 248 249 251 255 258 261 265 268 271 273 275 277 279 281 282 282 283 284 284 284 284 282 281 279 277 275 273
310 309 307 307 298 289 282 274 267 259 255 251 250 249 249 250 253 254 256 259 263 265 267 270 273 275 277 279 281 284 285 286 286 286 287 286 286 284 283 281 279 277 274
309 309 308 304 300 293 289 278 270 263 259 255 253 252 254 256 258 259 260 262 264 266 269 271 274 277 280 284 287 289 290 290 290 290 290 289 288 287 285 283 281 278 275
309 309 308 305 302 296 291 284 275 269 266 264 260 257 257 258 260 262 264 264 266 269 271 273 276 280 285 288 291 292 293 294 294 294 293 292 291 289 287 284 282 279 276
307 307 305 304 302 298 294 290 282 275 271 267 266 263 261 261 260 263 264 266 267 270 273 277 281 285 289 292 295 298 299 300 300 300 298 296 294 291 288 286 283 280 277
303 306 305 305 304 300 296 292 283 277 270 265 262 260 259 261 262 262 263 265 267 271 276 280 285 290 294 299 302 305 306 307 307 307 305 303 299 295 293 289 285 281 277
297 302 303 302 303 301 295 289 281 273 268 262 257 254 255 257 256 257 259 263 269 275 279 284 290 296 301 305 309 312 314 314 314 313 311 309 305 301 298 295 290 285 279
290 294 298 297 297 297 292 284 276 270 266 261 259 258 256 253 254 258 262 267 272 277 283 288 295 301 307 312 317 320 321 320 319 318 316 314 312 309 306 301 296 290 282
282 284 287 291 291 289 287 281 275 271 268 264 261 260 259 258 260 263 265 269 273 280 285 290 297 305 312 318 322 325 326 325 324 323 321 319 317 315 312 308 302 296 289
274 275 277 279 283 284 282 278 272 269 266 263 261 261 261 263 265 266 268 271 276 280 285 292 301 309 316 322 327 330 331 331 330 328 325 323 322 321 317 313 308 303 295
268 268 269 269 271 272 273 272 270 267 264 264 265 265 265 266 267 269 270 273 278 282 288 295 303 311 318 325 330 332 334 334 332 330 329 328 326 324 323 319 314 310 304
Height
5875 5875 5876 5876 5877 5877 5877 5876 5876 5874 5873 5873 5872 5871 5871 5870 5870 5870 5870 5870 5870 5869 5869 5869 5868 5867 5866 5865 5864 5862 5861 5859 5858 5857 5856 5854 5851 5849 5847 5846 5844 5843 5841
5866 5866 5866 5867 5868 5868 5868 5867 5867 5866 5865 5864 5862 5861 5861 5861 5861 5861 5861 5860 5860 5861 5861 5860 5859 5858 5857 5856 5855 5854 5853 5851 5849 5848 5848 5847 5846 5842 5840 5838 5836 5835 5834
5857 5857 5858 5858 5858 5858 5858 5858 5857 5856 5855 5853 5852 5852 5851 5851 5851 5851 5851 5850 5851 5851 5851 5851 5850 5849 5849 5848 5847 5845 5844 5843 5841 5839 5838 5837 5837 5835 5832 5829 5828 5826 5826
5849 5849 5849 5849 5848 5848 5848 5848 5848 5847 5845 5843 5842 5842 5841 5840 5840 5840 5840 5840 5841 5841 5841 5840 5841 5840 5840 5839 5838 5837 5836 5835 5833 5831 5828 5827 5825 5825 5825 5822 5819 5817 5817
5840 5840 5840 5840 5840 5839 5839 5839 5838 5837 5836 5834 5832 5831 5829 5829 5829 5829 5829 5830 5831 5831 5831 5832 5832 5832 5831 5831 5830 5828 5827 5826 5824 5822 5820 5818 5816 5814 5814 5814 5812 5809 5807
5830 5830 5830 5830 5830 5830 5829 5829 5828 5827 5826 5824 5822 5820 5820 5820 5820 5819 5820 5821 5822 5822 5823 5823 5823 5823 5823 5822 5821 5820 5818 5817 5815 5813 5811 5809 5807 5805 5803 5803 5803 5801 5799
5820 5820 5820 5819 5819 5818 5817 5817 5816 5816 5815 5814 5812 5811 5811 5810 5809 5810 5811 5812 5812 5813 5814 5814 5814 5814 5814 5813 5812 5810 5809 5808 5806 5804 5802 5800 5798 5797 5795 5794 5794 5793 5791
5809 5809 5808 5808 5807 5806 5805 5805 5804 5804 5803 5802 5801 5801 5800 5800 5800 5801 5802 5803 5804 5804 5805 5805 5806 5805 5805 5804 5803 5801 5800 5799 5797 5795 5794 5792 5790 5788 5787 5785 5784 5784 5782
5798 5797 5796 5795 5793 5792 5792 5791 5791 5790 5790 5789 5789 5788 5788 5789 5790 5791 5792 5793 5795 5795 5796 5796 5797 5796 5796 5795 5794 5793 5791 5790 5788 5787 5785 5784 5782 5780 5779 5777 5776 5775 5774
5786 5785 5783 5781 5780 5778 5777 5776 5776 5776 5775 5776 5775 5776 5777 5778 5780 5780 5781 5783 5785 5786 5787 5787 5788 5787 5787 5786 5785 5784 5783 5781 5780 5779 5777 5776 5774 5773 5771 5770 5768 5767 5766
5775 5772 5769 5767 5765 5763 5762 5761 5761 5761 5761 5762 5762 5764 5766 5767 5769 5770 5772 5773 5775 5776 5777 5778 5778 5778 5778 5777 5776 5775 5774 5773 5772 5770 5769 5768 5766 5765 5763 5762 5761 5759 5758
5763 5760 5757 5754 5751 5749 5747 5747 5747 5747 5748 5749 5750 5752 5754 5757 5759 5761 5762 5764 5765 5766 5768 5769 5769 5769 5769 5768 5768 5767 5766 5764 5763 5762 5761 5759 5758 5756 5755 5754 5752 5751 5750
5752 5749 5745 5742 5739 5737 5735 5735 5735 5736 5737 5738 5739 5742 5744 5746 5748 5751 5753 5754 5756 5758 5759 5760 5760 5760 5760 5760 5759 5758 5757 5756 5755 5753 5752 5750 5749 5747 5746 5745 5744 5742 5742
5743 5739 5735 5732 5730 5727 5725 5725 5725 5726 5727 5729 5731 5732 5734 5736 5739 5741 5743 5746 5747 5749 5750 5751 5751 5751 5751 5751 5750 5749 5748 5747 5746 5744 5742 5741 5740 5738 5737 5735 5734 5733 5732
5735 5731 5728 5725 5722 5719 5718 5717 5717 5718 5719 5720 5722 5724 5726 5728 5730 5733 5735 5737 5739 5740 5741 5742 5742 5743 5742 5742 5741 5740 5739 5738 5736 5735 5733 5732 5730 5728 5727 5725 5724 5723 5722
5729 5726 5722 5719 5716 5714 5712 5711 5711 5711 5712 5713 5715 5717 5719 5721 5723 5725 5727 5729 5730 5732 5733 5734 5734 5734 5734 5733 5733 5732 5730 5729 5727 5725 5724 5722 5720 5718 5716 5714 5713 5712 5712
5725 5721 5718 5714 5711 5709 5707 5707 5706 5706 5707 5708 5709 5711 5713 5715 5717 5718 5720 5721 5723 5724 5726 5726 5727 5727 5726 5725 5724 5723 5722 5720 5718 5716 5714 5712 5710 5707 5705 5703 5702 5701 5700
5720 5717 5714 5711 5708 5705 5703 5702 5701 5702 5702 5703 5704 5706 5707 5709 5711 5712 5714 5715 5717 5718 5719 5719 5720 5719 5719 5718 5717 5715 5714 5712 5710 5707 5704 5702 5699 5696 5694 5692 5690 5689 5688
5716 5712 5709 5707 5704 5702 5699 5698 5697 5698 5698 5698 5700 5701 5702 5704 5706 5707 5708 5710 5711 5712 5713 5713 5713 5713 5712 5711 5710 5708 5706 5704 5701 5698 5695 5692 5689 5686 5683 5680 5678 5676 5675
5711 5708 5706 5703 5700 5698 5696 5694 5693 5693 5694 5694 5695 5696 5698 5700 5701 5702 5704 5705 5706 5707 5707 5708 5708 5707 5706 5705 5703 5701 5699 5696 5693 5689 5685 5682 5678 5675 5671 5669 5666 5664 5663
5707 5704 5702 5700 5697 5695 5693 5691 5691 5690 5691 5691 5692 5693 5694 5696 5697 5698 5700 5701 5702 5703 5703 5703 5703 5702 5701 5699 5697 5694 5691 5687 5683 5679 5675 5671 5667 5663 5660 5657 5654 5652 5651
5702 5700 5698 5696 5694 5692 5690 5689 5689 5688 5688 5689 5689 5690 5691 5693 5694 5695 5696 5697 5698 5698 5698 5698 5698 5697 5695 5693 5690 5687 5683 5679 5675 5670 5665 5661 5656 5653 5649 5646 5643 5641 5639
5697 5696 5694 5693 5691 5689 5688 5687 5687 5686 5686 5687 5687 5688 5689 5689 5691 5692 5693 5693 5694 5694 5694 5694 5693 5691 5689 5687 5684 5680 5676 5671 5666 5661 5656 5652 5647 5643 5639 5636 5633 5630 5628
5692 5691 5690 5689 5688 5686 5685 5685 5684 5684 5684 5684 5685 5685 5686 5687 5688 5689 5689 5690 5690 5690 5690 5689 5688 5686 5684 5681 5677 5673 5669 5664 5659 5654 5649 5644 5640 5635 5631 5627 5624 5621 5619
5686 5686 5685 5685 5684 5683 5682 5682 5681 5681 5681 5682 5682 5683 5683 5684 5685 5685 5685 5686 5686 5685 5685 5684 5683 5681 5678 5675 5671 5667 5662 5657 5652 5647 5642 5638 5633 5628 5624 5619 5616 5613 5610
5679 5679 5679 5679 5679 5679 5678 5678 5678 5678 5678 5678 5679 5679 5680 5680 5681 5681 5681 5681 5681 5681 5680 5679 5677 5675 5672 5669 5665 5661 5657 5652 5647 5642 5637 5632 5627 5623 5618 5613 5609 5606 5603